sat.trackr.live / text

‹ back to catalog

STARLINK-37142

NORAD 68296 · 2026-057C

PAYLOAD ACTIVE UNKNOWN

§ Identity

Operator
Country
US
Launch date
2026-03-20
Launch site
AFWTR
Launch vehicle
Mass (kg)
RCS (m²)

Purposes: comms

External: N2YO · Heavens-Above · Gunter

§ Orbital elements

Epoch: 2026-09-20T03:40:00.994656Z

Period
93.91 min
Inclination
97.2852°
Eccentricity
0.0000975
Mean motion
15.33461789 rev/d
Perigee alt
464.8 km
Apogee alt
466.2 km
Semi-major
6,843.6 km
B*
7.5283e-4
RAAN
28.6060°
Arg perigee
75.7272°
Mean anomaly
284.4079°
Rev number
2,846

§ Raw data

STARLINK-371421 68296U 26057C   26263.15278929  .00024320  00000+0  75283-3 0  99912 68296  97.2852  28.6060 0000975  75.7272 284.4079 15.33461789 28460

JSON: /api/v1/satellites/68296 · /tle

For live sub-satellite position, see the globe view (requires WebGL).

§ Visibility from observer

Set your observer location to see the next 7 days of passes ≥ 10°. The values pass through the URL so the page stays shareable.

No JS? Fill the form by hand. The geolocation button needs JavaScript.